FW8740 Weather Reports


Display with metric or nautical units.
time (UTC)temp
F
wind
direction
speed
MPH
gust
MPH
rain 1hr
in
rain 24hr
in
rain mn
in
humidity
%
barometer
mb
20260505083058 49 113 0.0 0.0 0.00 0.00 0.00 88 1013.3
20260505082553 49 112 0.0 0.0 0.00 0.00 0.00 87 1013.3
20260505082051 49 113 0.0 0.0 0.00 0.00 0.00 87 1013.2
20260505081547 50 121 0.0 1.0 0.00 0.00 0.00 87 1013.3
20260505081044 50 113 0.0 0.0 0.00 0.00 0.00 87 1013.4
20260505080540 50 117 0.0 0.0 0.00 0.00 0.00 87 1013.2
20260505080037 50 124 0.0 1.0 0.00 0.00 0.00 87 1013.3
20260505075533 51 115 0.0 0.0 0.00 0.00 0.00 87 1013.5
20260505075030 51 116 0.0 0.0 0.00 0.00 0.00 87 1013.2
20260505074527 51 123 0.0 1.0 0.00 0.00 0.00 86 1013.2
20260505074024 51 110 0.0 0.0 0.00 0.00 0.00 86 1013.2
20260505073522 51 110 0.0 0.0 0.00 0.00 0.00 86 1013.0
20260505073020 50 111 0.0 0.0 0.00 0.00 0.00 86 1013.2
20260505072515 51 112 0.0 1.0 0.00 0.00 0.00 86 1013.2
20260505072012 51 114 0.0 0.0 0.00 0.00 0.00 85 1013.2
20260505071507 51 113 0.0 0.0 0.00 0.00 0.00 85 1013.2
20260505071006 51 114 0.0 1.0 0.00 0.00 0.00 85 1013.0
20260505070503 51 118 0.0 1.0 0.00 0.00 0.00 84 1013.2
20260505065958 51 124 0.0 1.0 0.00 0.00 0.00 84 1013.2
20260505065454 51 120 1.0 1.0 0.00 0.00 0.00 83 1013.2
20260505064951 52 119 1.0 1.0 0.00 0.00 0.00 83 1013.2
20260505064448 52 119 1.0 1.0 0.00 0.00 0.00 82 1013.2
20260505063947 52 108 0.0 0.0 0.00 0.00 0.00 82 1013.2
20260505063443 52 109 0.0 0.0 0.00 0.00 0.00 82 1013.2
20260505062939 52 110 0.0 0.0 0.00 0.00 0.00 81 1013.4
20260505062436 53 111 0.0 1.0 0.00 0.00 0.00 81 1013.3
20260505061933 53 110 0.0 0.0 0.00 0.00 0.00 80 1013.4
20260505061431 53 111 0.0 0.0 0.00 0.00 0.00 80 1013.2
20260505060928 53 110 0.0 0.0 0.00 0.00 0.00 79 1013.3
20260505060426 53 110 0.0 0.0 0.00 0.00 0.00 78 1013.1
20260505055922 54 109 0.0 0.0 0.00 0.00 0.00 78 1013.4
20260505055418 54 110 0.0 0.0 0.00 0.00 0.00 77 1013.3
20260505054915 54 110 0.0 0.0 0.00 0.00 0.00 77 1013.6
20260505054412 55 106 0.0 0.0 0.00 0.00 0.00 76 1013.6
20260505053910 55 117 0.0 1.0 0.00 0.00 0.00 76 1013.4
20260505053407 55 127 1.0 1.0 0.00 0.00 0.00 75 1013.6
20260505052903 56 124 0.0 1.0 0.00 0.00 0.00 75 1013.7
20260505052401 56 139 1.0 1.0 0.00 0.00 0.00 74 1013.7
20260505051858 57 148 1.0 2.0 0.00 0.00 0.00 74 1013.5
20260505051355 57 139 1.0 1.0 0.00 0.00 0.00 75 1013.7
20260505050853 56 148 1.0 1.0 0.00 0.00 0.00 75 1013.6
20260505050351 56 118 0.0 2.0 0.00 0.00 0.00 75 1013.5
20260505041319 55 117 0.0 2.0 0.00 0.00 0.00 78 1013.9
20260505040815 55 123 0.0 2.0 0.00 0.00 0.00 78 1013.8
20260505040313 55 116 0.0 1.0 0.00 0.00 0.00 78 1013.8
20260505035809 55 128 1.0 1.0 0.00 0.00 0.00 78 1013.8
20260505035305 55 120 0.0 2.0 0.00 0.00 0.00 79 1013.9
20260505034803 54 123 0.0 2.0 0.00 0.00 0.00 79 1013.9
20260505034259 54 112 0.0 0.0 0.00 0.00 0.00 79 1014.0
20260505033756 54 116 0.0 1.0 0.00 0.00 0.00 79 1013.9
20260505033254 54 107 0.0 0.0 0.00 0.00 0.00 79 1014.0
20260505032752 54 118 0.0 1.0 0.00 0.00 0.00 78 1014.0
20260505032247 55 121 0.0 1.0 0.00 0.00 0.00 78 1013.9
20260505031745 55 111 0.0 1.0 0.00 0.00 0.00 78 1013.8
20260505031241 55 141 1.0 2.0 0.00 0.00 0.00 78 1014.3
20260505030738 55 121 0.0 2.0 0.00 0.00 0.00 78 1013.9
20260505030234 56 118 0.0 1.0 0.00 0.00 0.00 77 1013.9
20260505025730 56 136 1.0 1.0 0.00 0.00 0.00 78 1013.9
20260505025228 56 119 0.0 1.0 0.00 0.00 0.00 78 1013.9
20260505024726 55 127 1.0 2.0 0.00 0.00 0.00 78 1014.0
20260505024223 55 126 1.0 1.0 0.00 0.00 0.00 78 1013.8
20260505023720 55 116 0.0 1.0 0.00 0.00 0.00 78 1013.8
20260505023218 56 114 0.0 2.0 0.00 0.00 0.00 79 1014.0
20260505022715 56 132 1.0 1.0 0.00 0.00 0.00 79 1014.1
20260505022212 56 125 0.0 1.0 0.00 0.00 0.00 79 1014.0
20260505021709 55 128 0.0 1.0 0.00 0.00 0.00 80 1014.0
20260505021206 55 118 0.0 0.0 0.00 0.00 0.00 79 1014.1
20260505020701 55 121 0.0 1.0 0.00 0.00 0.00 80 1014.0
20260505020157 55 110 0.0 0.0 0.00 0.00 0.00 80 1013.9
20260505015654 55 122 0.0 1.0 0.00 0.00 0.00 80 1014.1
20260505015151 55 120 1.0 1.0 0.00 0.00 0.00 80 1013.9
20260505014648 55 121 0.0 1.0 0.00 0.00 0.00 80 1014.1
20260505014145 54 117 0.0 0.0 0.00 0.00 0.00 79 1013.8
20260505013642 54 112 0.0 0.0 0.00 0.00 0.00 79 1014.0
20260505013139 54 106 0.0 0.0 0.00 0.00 0.00 79 1013.9
20260505012638 55 107 0.0 0.0 0.00 0.00 0.00 78 1013.7
20260505012134 55 111 0.0 0.0 0.00 0.00 0.00 78 1013.7
20260505011630 55 114 1.0 1.0 0.00 0.00 0.00 77 1013.6
20260505011127 55 118 0.0 1.0 0.00 0.00 0.00 76 1013.8
20260505010622 56 124 1.0 1.0 0.00 0.00 0.00 76 1013.5
20260505010119 56 133 1.0 1.0 0.00 0.00 0.00 75 1013.4
20260505005615 56 128 1.0 1.0 0.00 0.00 0.00 75 1013.6
20260505005112 57 137 1.0 2.0 0.00 0.00 0.00 74 1013.5
20260505004609 57 127 0.0 1.0 0.00 0.00 0.00 74 1013.3
20260505004106 57 150 1.0 2.0 0.00 0.00 0.00 73 1013.3
20260505003603 57 119 0.0 2.0 0.00 0.00 0.00 72 1013.1
20260505003101 57 158 1.0 2.0 0.00 0.00 0.00 72 1013.2
20260505002556 57 142 1.0 3.0 0.00 0.00 0.00 71 1012.8
20260505002055 58 127 1.0 2.0 0.00 0.00 0.00 70 1012.8
20260505001552 58 142 1.0 1.0 0.00 0.00 0.00 70 1012.7
20260505001049 58 153 1.0 1.0 0.00 0.00 0.00 69 1013.1
20260505000546 59 166 1.0 1.0 0.00 0.00 0.00 68 1012.8
20260505000044 59 117 0.0 3.0 0.00 0.00 0.00 68 1012.6
20260504235540 59 191 3.0 5.0 0.00 0.00 0.00 67 1012.6
20260504235038 59 221 3.0 6.0 0.00 0.00 0.00 66 1012.3
20260504234534 60 166 2.0 6.0 0.00 0.00 0.00 65 1012.5
20260504234031 60 137 2.0 2.0 0.00 0.00 0.00 64 1012.5
20260504233526 60 198 2.0 5.0 0.00 0.00 0.00 64 1012.4
20260504233023 60 149 1.0 7.0 0.00 0.00 0.00 63 1012.1
20260504232520 61 216 4.0 6.0 0.00 0.00 0.00 62 1012.0
20260504232018 61 321 3.0 3.0 0.00 0.00 0.00 62 1012.0
20260504231514 61 225 3.0 3.0 0.00 0.00 0.00 61 1012.2
20260504231011 61 116 0.0 2.0 0.00 0.00 0.00 61 1012.0
20260504230507 62 164 2.0 3.0 0.00 0.00 0.00 60 1012.2
20260504230006 62 162 1.0 3.0 0.00 0.00 0.00 59 1012.0
20260504225503 62 206 3.0 5.0 0.00 0.00 0.00 59 1012.1
20260504225000 62 218 3.0 9.0 0.00 0.00 0.00 58 1011.9
20260504224456 63 275 3.0 5.0 0.00 0.00 0.00 58 1012.0
20260504223953 63 252 5.0 6.0 0.00 0.00 0.00 57 1012.1
20260504223450 63 264 5.0 6.0 0.00 0.00 0.00 57 1011.8
20260504222945 64 195 3.0 3.0 0.00 0.00 0.00 57 1011.9
20260504222443 64 184 1.0 3.0 0.00 0.00 0.00 57 1011.9
20260504221940 64 206 3.0 5.0 0.00 0.00 0.00 55 1012.2
20260504221437 64 139 3.0 6.0 0.00 0.00 0.00 55 1012.2
20260504220934 65 173 4.0 7.0 0.00 0.00 0.00 54 1012.2
20260504220431 65 250 4.0 8.0 0.00 0.00 0.00 54 1012.4
20260504215928 66 206 2.0 5.0 0.00 0.00 0.00 53 1012.3
20260504215425 66 190 2.0 3.0 0.00 0.00 0.00 52 1012.1
20260504214921 67 181 3.0 5.0 0.00 0.00 0.00 51 1012.3
20260504214418 67 161 2.0 6.0 0.00 0.00 0.00 51 1012.3
20260504213914 67 248 5.0 8.0 0.00 0.00 0.00 50 1012.3
20260504213410 67 189 3.0 7.0 0.00 0.00 0.00 50 1012.5
20260504212908 68 173 5.0 13.0 0.00 0.00 0.00 49 1012.1
20260504212403 68 243 6.0 9.0 0.00 0.00 0.00 48 1012.4
20260504211902 68 238 4.0 6.0 0.00 0.00 0.00 48 1012.2
20260504211357 68 246 4.0 9.0 0.00 0.00 0.00 48 1012.2
20260504210855 69 199 1.0 3.0 0.00 0.00 0.00 48 1012.1
20260504210352 68 187 2.0 8.0 0.00 0.00 0.00 48 1012.3
20260504205849 69 231 3.0 7.0 0.00 0.00 0.00 46 1012.1
20260504205347 70 173 1.0 6.0 0.00 0.00 0.00 46 1012.0
20260504204844 71 149 2.0 3.0 0.00 0.00 0.00 43 1012.2
20260504204343 72 107 0.0 2.0 0.00 0.00 0.00 38 1012.5
20260504203842 72 271 4.0 7.0 0.00 0.00 0.00 37 1012.4
20260504203338 73 279 4.0 5.0 0.00 0.00 0.00 37 1012.2
20260504202834 72 238 3.0 8.0 0.00 0.00 0.00 37 1012.2
20260504202332 72 235 2.0 5.0 0.00 0.00 0.00 37 1012.3
20260504201828 71 319 5.0 9.0 0.00 0.00 0.00 38 1012.3
20260504201326 72 60 2.0 7.0 0.00 0.00 0.00 38 1012.2
20260504200823 71 169 2.0 6.0 0.00 0.00 0.00 38 1012.4
20260504200319 71 173 4.0 7.0 0.00 0.00 0.00 38 1012.5
20260504195815 70 166 3.0 8.0 0.00 0.00 0.00 38 1012.5
20260504195311 70 350 6.0 8.0 0.00 0.00 0.00 39 1012.5
20260504194808 71 299 4.0 11.0 0.00 0.00 0.00 38 1012.6
20260504194304 72 322 6.0 11.0 0.00 0.00 0.00 37 1012.5
20260504193801 72 353 5.0 7.0 0.00 0.00 0.00 38 1012.3
20260504193258 71 14 3.0 11.0 0.00 0.00 0.00 38 1012.5
20260504192757 71 294 9.0 11.0 0.00 0.00 0.00 38 1012.4
20260504192254 71 280 6.0 11.0 0.00 0.00 0.00 38 1012.6
20260504191753 71 272 5.0 10.0 0.00 0.00 0.00 38 1012.8
20260504191249 71 273 3.0 5.0 0.00 0.00 0.00 38 1012.8
20260504190745 70 318 5.0 9.0 0.00 0.00 0.00 39 1013.0
20260504190242 71 278 4.0 10.0 0.00 0.00 0.00 38 1012.9
20260504185738 70 107 0.0 3.0 0.00 0.00 0.00 39 1013.0
20260504185235 70 22 3.0 9.0 0.00 0.00 0.00 39 1013.0
20260504184731 69 342 3.0 8.0 0.00 0.00 0.00 39 1013.0
20260504184227 71 322 5.0 13.0 0.00 0.00 0.00 39 1013.2
20260504183723 70 210 2.0 7.0 0.00 0.00 0.00 39 1013.0
20260504183220 71 209 4.0 11.0 0.00 0.00 0.00 39 1012.9
20260504182718 70 226 2.0 14.0 0.00 0.00 0.00 40 1013.2
20260504182215 69 240 2.0 15.0 0.00 0.00 0.00 40 1013.3
20260504181713 69 59 2.0 8.0 0.00 0.00 0.00 40 1013.4
20260504181210 69 291 4.0 8.0 0.00 0.00 0.00 39 1013.3
20260504180709 69 348 3.0 16.0 0.00 0.00 0.00 39 1013.5
20260504180207 70 208 2.0 2.0 0.00 0.00 0.00 39 1013.4
20260504175704 69 67 2.0 6.0 0.00 0.00 0.00 40 1013.5
20260504175201 69 317 9.0 10.0 0.00 0.00 0.00 39 1013.6
20260504174659 68 310 1.0 8.0 0.00 0.00 0.00 40 1013.5
20260504174156 69 264 3.0 11.0 0.00 0.00 0.00 40 1013.7
20260504173652 70 300 6.0 9.0 0.00 0.00 0.00 39 1013.8
20260504173150 69 145 2.0 9.0 0.00 0.00 0.00 40 1013.7
20260504172646 68 107 1.0 6.0 0.00 0.00 0.00 40 1013.6
20260504172143 69 321 3.0 7.0 0.00 0.00 0.00 40 1014.0
20260504171639 67 339 9.0 10.0 0.00 0.00 0.00 40 1013.8
20260504171137 68 16 1.0 3.0 0.00 0.00 0.00 41 1013.9
20260504170633 67 214 3.0 10.0 0.00 0.00 0.00 41 1014.1
20260504170131 66 295 5.0 15.0 0.00 0.00 0.00 41 1014.1
20260504151016 64 274 5.0 13.0 0.00 0.00 0.00 41 1015.4
20260504150514 63 96 2.0 7.0 0.00 0.00 0.00 43 1015.5
20260504140939 61 123 1.0 9.0 0.00 0.00 0.00 46 1015.8
20260504140436 60 98 2.0 5.0 0.00 0.00 0.00 46 1015.8
20260504130400 57 305 3.0 5.0 0.00 0.00 0.00 51 1016.7
20260504110248 50 270 2.0 6.0 0.00 0.00 0.00 59 1016.6
20260504100211 49 67 1.0 3.0 0.00 0.00 0.00 58 1016.2
20260504090134 49 46 2.0 6.0 0.00 0.00 0.00 58 1016.1